Time,TemperatureF,DewpointF,PressureIn,WindDirection,WindDirectionDegrees,WindSpeedMPH,WindSpeedGustMPH,Humidity,HourlyPrecipIn,Conditions,Clouds,dailyrainin,SoftwareType,DateUTC
2013-08-04 00:03:00,85.8,60.0,28.97,WSW,256,1.0,2.7,42,0.00,,,0.00,WSDL version 420,2013-08-04 05:03:00,
2013-08-04 00:08:00,85.6,59.9,28.97,North,357,1.0,2.7,42,0.00,,,0.00,WSDL version 420,2013-08-04 05:08:00,
2013-08-04 00:13:00,85.5,59.8,28.97,SW,214,0.0,2.5,42,0.00,,,0.00,WSDL version 420,2013-08-04 05:13:00,
2013-08-04 00:18:00,85.4,59.7,29.00,SW,235,1.1,3.1,42,0.00,,,0.00,WSDL version 420,2013-08-04 05:18:00,
2013-08-04 00:23:00,85.3,60.0,29.00,SW,233,1.2,3.1,43,0.00,,,0.00,WSDL version 420,2013-08-04 05:23:00,
2013-08-04 00:28:00,85.1,60.1,29.00,SW,233,2.1,3.4,43,0.00,,,0.00,WSDL version 420,2013-08-04 05:28:00,
2013-08-04 00:33:00,85.0,60.0,29.00,ENE,58,0.6,3.4,43,0.00,,,0.00,WSDL version 420,2013-08-04 05:33:00,
2013-08-04 00:38:00,84.8,59.8,29.00,WNW,284,1.0,3.1,43,0.00,,,0.00,WSDL version 420,2013-08-04 05:38:00,
2013-08-04 00:43:00,84.5,59.6,29.00,South,180,1.5,3.1,43,0.00,,,0.00,WSDL version 420,2013-08-04 05:43:00,
2013-08-04 00:48:00,84.3,59.4,29.00,ESE,113,1.1,3.1,43,0.00,,,0.00,WSDL version 420,2013-08-04 05:48:00,
2013-08-04 00:53:00,84.0,59.1,29.00,South,190,1.3,5.4,43,0.00,,,0.00,WSDL version 420,2013-08-04 05:53:00,
2013-08-04 00:58:00,83.8,59.3,29.00,WSW,245,1.3,5.4,44,0.00,,,0.00,WSDL version 420,2013-08-04 05:58:00,
2013-08-04 01:03:00,83.6,59.1,29.00,SSW,205,2.0,3.6,44,0.00,,,0.00,WSDL version 420,2013-08-04 06:03:00,
2013-08-04 01:08:00,83.4,59.2,29.00,SSW,213,2.1,4.9,44,0.00,,,0.00,WSDL version 420,2013-08-04 06:08:00,
2013-08-04 01:13:00,83.3,59.1,29.00,SW,223,2.5,4.9,44,0.00,,,0.00,WSDL version 420,2013-08-04 06:13:00,
2013-08-04 01:18:00,83.0,59.1,29.00,SSW,200,1.2,4.0,45,0.00,,,0.00,WSDL version 420,2013-08-04 06:18:00,
2013-08-04 01:23:00,82.8,59.3,29.00,WSW,239,0.7,2.9,45,0.00,,,0.00,WSDL version 420,2013-08-04 06:23:00,
2013-08-04 01:28:00,82.5,59.7,29.00,SSW,203,1.9,3.6,46,0.00,,,0.00,WSDL version 420,2013-08-04 06:28:00,
2013-08-04 01:33:00,82.3,60.2,29.00,WSW,245,1.5,3.6,48,0.00,,,0.00,WSDL version 420,2013-08-04 06:33:00,
2013-08-04 01:38:00,82.1,60.4,29.00,NW,315,1.3,2.9,48,0.00,,,0.00,WSDL version 420,2013-08-04 06:38:00,
2013-08-04 01:43:00,82.0,60.8,29.00,SW,225,1.8,5.6,49,0.00,,,0.00,WSDL version 420,2013-08-04 06:43:00,
2013-08-04 01:48:00,81.8,60.7,29.03,West,267,1.1,5.6,49,0.00,,,0.00,WSDL version 420,2013-08-04 06:48:00,
2013-08-04 01:53:00,81.6,61.0,29.03,SW,233,1.1,2.7,51,0.00,,,0.00,WSDL version 420,2013-08-04 06:53:00,
2013-08-04 01:58:00,81.4,61.0,29.03,SW,236,1.0,2.7,50,0.00,,,0.00,WSDL version 420,2013-08-04 06:58:00,
2013-08-04 02:03:00,81.3,61.1,29.00,ENE,70,0.4,2.9,51,0.00,,,0.00,WSDL version 420,2013-08-04 07:03:00,
2013-08-04 02:08:00,81.1,61.2,29.00,SW,228,1.0,2.9,52,0.00,,,0.00,WSDL version 420,2013-08-04 07:08:00,
2013-08-04 02:13:00,81.0,61.6,29.00,ESE,116,0.5,2.7,52,0.00,,,0.00,WSDL version 420,2013-08-04 07:13:00,
2013-08-04 02:18:00,80.9,61.8,29.00,SW,223,1.3,2.9,54,0.00,,,0.00,WSDL version 420,2013-08-04 07:18:00,
2013-08-04 02:23:00,80.7,61.8,29.00,South,172,0.7,3.1,53,0.00,,,0.00,WSDL version 420,2013-08-04 07:23:00,
2013-08-04 02:28:00,80.6,61.9,29.00,SW,215,0.0,3.1,53,0.00,,,0.00,WSDL version 420,2013-08-04 07:28:00,
2013-08-04 02:33:00,80.5,61.8,29.00,SW,233,0.0,2.2,53,0.00,,,0.00,WSDL version 420,2013-08-04 07:33:00,
2013-08-04 02:38:00,80.3,62.0,29.00,SW,233,0.9,2.2,55,0.00,,,0.00,WSDL version 420,2013-08-04 07:38:00,
2013-08-04 02:43:00,80.2,62.0,29.00,SSW,208,1.1,2.7,55,0.00,,,0.00,WSDL version 420,2013-08-04 07:43:00,
2013-08-04 02:48:00,80.2,62.6,29.00,SW,214,1.0,2.7,55,0.00,,,0.00,WSDL version 420,2013-08-04 07:48:00,
2013-08-04 02:53:00,80.0,62.5,29.00,South,186,0.7,2.5,56,0.00,,,0.00,WSDL version 420,2013-08-04 07:53:00,
2013-08-04 02:58:00,79.9,62.6,29.00,SW,220,1.5,2.7,56,0.00,,,0.00,WSDL version 420,2013-08-04 07:58:00,
2013-08-04 03:03:00,79.8,63.0,29.00,SW,223,0.5,2.9,55,0.00,,,0.00,WSDL version 420,2013-08-04 08:03:00,
2013-08-04 03:08:00,79.7,62.6,29.00,South,186,1.1,2.9,57,0.00,,,0.00,WSDL version 420,2013-08-04 08:08:00,
2013-08-04 03:13:00,79.5,63.1,29.00,SSW,205,1.2,2.5,57,0.00,,,0.00,WSDL version 420,2013-08-04 08:13:00,
2013-08-04 03:18:00,79.5,63.1,29.00,SW,222,1.0,2.2,58,0.00,,,0.00,WSDL version 420,2013-08-04 08:18:00,
2013-08-04 03:23:00,79.3,63.2,29.00,SSE,150,1.3,2.5,59,0.00,,,0.00,WSDL version 420,2013-08-04 08:23:00,
2013-08-04 03:28:00,79.3,63.7,29.00,SSW,195,1.1,3.1,58,0.00,,,0.00,WSDL version 420,2013-08-04 08:28:00,
2013-08-04 03:33:00,79.2,63.4,29.00,SW,219,1.6,3.1,58,0.00,,,0.00,WSDL version 420,2013-08-04 08:33:00,
2013-08-04 03:38:00,79.1,63.4,29.00,SW,228,1.2,2.9,59,0.00,,,0.00,WSDL version 420,2013-08-04 08:38:00,
2013-08-04 03:43:00,79.0,63.5,29.00,SW,217,1.0,2.2,59,0.00,,,0.00,WSDL version 420,2013-08-04 08:43:00,
2013-08-04 03:48:00,78.8,63.7,29.00,SSW,195,0.5,2.2,59,0.00,,,0.00,WSDL version 420,2013-08-04 08:48:00,
2013-08-04 03:53:00,78.7,63.6,29.00,South,178,1.2,2.9,60,0.00,,,0.00,WSDL version 420,2013-08-04 08:53:00,
2013-08-04 03:58:00,78.6,63.7,29.00,SW,233,1.3,3.1,60,0.00,,,0.00,WSDL version 420,2013-08-04 08:58:00,
2013-08-04 04:03:00,78.5,63.9,29.00,SSW,197,1.0,3.1,61,0.00,,,0.00,WSDL version 420,2013-08-04 09:03:00,
2013-08-04 04:08:00,78.4,64.0,29.00,West,264,0.0,2.0,61,0.00,,,0.00,WSDL version 420,2013-08-04 09:08:00,
2013-08-04 04:13:00,78.3,63.8,29.00,SSW,195,0.0,1.3,61,0.00,,,0.00,WSDL version 420,2013-08-04 09:13:00,
2013-08-04 04:18:00,78.1,64.1,29.00,SSE,158,0.4,2.0,62,0.00,,,0.00,WSDL version 420,2013-08-04 09:18:00,
2013-08-04 04:23:00,78.0,64.1,29.00,South,180,0.9,2.0,62,0.00,,,0.00,WSDL version 420,2013-08-04 09:23:00,
2013-08-04 04:28:00,77.9,64.1,29.00,South,170,0.0,2.0,62,0.00,,,0.00,WSDL version 420,2013-08-04 09:28:00,
2013-08-04 04:33:00,77.9,64.5,29.00,South,172,1.0,2.2,64,0.00,,,0.00,WSDL version 420,2013-08-04 09:33:00,
2013-08-04 04:38:00,77.7,64.0,29.00,WSW,239,1.0,2.2,62,0.00,,,0.00,WSDL version 420,2013-08-04 09:38:00,
2013-08-04 04:43:00,77.6,64.0,29.00,SW,222,1.3,2.5,63,0.00,,,0.00,WSDL version 420,2013-08-04 09:43:00,
2013-08-04 04:48:00,77.7,64.6,29.00,SSW,200,1.5,3.1,65,0.00,,,0.00,WSDL version 420,2013-08-04 09:48:00,
2013-08-04 04:53:00,77.7,64.8,29.00,SW,214,1.2,3.1,64,0.00,,,0.00,WSDL version 420,2013-08-04 09:53:00,
2013-08-04 04:58:00,77.7,65.2,29.00,WSW,238,1.3,2.9,66,0.00,,,0.00,WSDL version 420,2013-08-04 09:58:00,
2013-08-04 05:03:00,77.7,65.1,29.00,WSW,248,1.3,3.6,65,0.00,,,0.00,WSDL version 420,2013-08-04 10:03:00,
2013-08-04 05:08:00,77.7,65.3,29.00,SW,235,1.8,3.6,66,0.00,,,0.00,WSDL version 420,2013-08-04 10:08:00,
2013-08-04 05:13:00,77.7,65.4,29.00,SW,223,1.2,3.4,66,0.00,,,0.00,WSDL version 420,2013-08-04 10:13:00,
2013-08-04 05:18:00,77.6,65.1,28.97,SSW,194,1.2,2.9,66,0.00,,,0.00,WSDL version 420,2013-08-04 10:18:00,
2013-08-04 05:23:00,77.5,65.3,28.97,SSE,168,0.5,2.5,66,0.00,,,0.00,WSDL version 420,2013-08-04 10:23:00,
2013-08-04 05:28:00,77.6,65.2,28.97,West,262,0.6,2.5,65,0.00,,,0.00,WSDL version 420,2013-08-04 10:28:00,
2013-08-04 05:33:00,77.5,65.2,29.00,SSW,200,1.5,3.1,66,0.00,,,0.00,WSDL version 420,2013-08-04 10:33:00,
2013-08-04 05:38:00,77.4,65.2,29.00,SW,233,0.6,3.1,66,0.00,,,0.00,WSDL version 420,2013-08-04 10:38:00,
2013-08-04 05:43:00,77.4,65.2,29.00,South,177,0.9,2.2,66,0.00,,,0.00,WSDL version 420,2013-08-04 10:43:00,
2013-08-04 05:48:00,77.3,65.1,29.00,SSW,203,0.9,2.0,67,0.00,,,0.00,WSDL version 420,2013-08-04 10:48:00,
2013-08-04 05:53:00,77.2,65.4,29.00,SW,219,0.6,2.0,67,0.00,,,0.00,WSDL version 420,2013-08-04 10:53:00,
2013-08-04 05:58:00,77.0,65.0,29.00,SSW,205,1.0,2.0,66,0.00,,,0.00,WSDL version 420,2013-08-04 10:58:00,
2013-08-04 06:03:00,77.0,65.2,28.97,South,169,0.0,2.0,67,0.00,,,0.00,WSDL version 420,2013-08-04 11:03:00,
2013-08-04 06:08:00,76.8,65.0,28.97,SSW,203,0.0,1.1,67,0.00,,,0.00,WSDL version 420,2013-08-04 11:08:00,
2013-08-04 06:13:00,76.7,64.9,28.97,West,270,0.0,1.1,66,0.00,,,0.00,WSDL version 420,2013-08-04 11:13:00,
2013-08-04 06:18:00,76.6,64.9,29.00,South,183,0.4,1.3,68,0.00,,,0.00,WSDL version 420,2013-08-04 11:18:00,
2013-08-04 06:23:00,76.4,64.8,29.00,WSW,248,0.0,1.3,67,0.00,,,0.00,WSDL version 420,2013-08-04 11:23:00,
2013-08-04 06:28:00,76.3,65.2,29.00,West,267,0.0,1.3,69,0.00,,,0.00,WSDL version 420,2013-08-04 11:28:00,
2013-08-04 06:33:00,76.3,65.4,29.00,SW,228,0.0,1.6,69,0.00,,,0.00,WSDL version 420,2013-08-04 11:33:00,
2013-08-04 06:38:00,76.2,65.4,29.00,SSE,158,0.0,1.6,69,0.00,,,0.00,WSDL version 420,2013-08-04 11:38:00,
2013-08-04 06:43:00,76.1,65.6,29.00,SSE,155,0.4,1.1,70,0.00,,,0.00,WSDL version 420,2013-08-04 11:43:00,
2013-08-04 06:48:00,75.9,65.4,29.00,WSW,248,0.0,1.1,69,0.00,,,0.00,WSDL version 420,2013-08-04 11:48:00,
2013-08-04 06:53:00,75.9,65.3,29.00,South,180,0.0,0.9,70,0.00,,,0.00,WSDL version 420,2013-08-04 11:53:00,
2013-08-04 06:58:00,75.7,65.3,29.00,South,180,0.0,0.0,70,0.00,,,0.00,WSDL version 420,2013-08-04 11:58:00,
2013-08-04 07:03:00,75.7,65.3,29.03,South,180,0.0,1.1,70,0.00,,,0.00,WSDL version 420,2013-08-04 12:03:00,
2013-08-04 07:08:00,75.7,65.3,29.03,South,180,0.0,1.1,70,0.00,,,0.00,WSDL version 420,2013-08-04 12:08:00,
2013-08-04 07:13:00,75.7,65.5,29.03,South,180,0.0,0.9,71,0.00,,,0.00,WSDL version 420,2013-08-04 12:13:00,
2013-08-04 07:18:00,75.8,65.5,29.00,South,180,0.0,0.0,71,0.00,,,0.00,WSDL version 420,2013-08-04 12:18:00,
2013-08-04 07:23:00,75.9,65.9,29.00,South,190,0.0,1.1,72,0.00,,,0.00,WSDL version 420,2013-08-04 12:23:00,
2013-08-04 07:28:00,76.1,66.0,29.00,South,180,0.0,1.1,71,0.00,,,0.00,WSDL version 420,2013-08-04 12:28:00,
2013-08-04 07:33:00,76.5,66.2,29.03,South,180,0.0,0.0,70,0.00,,,0.00,WSDL version 420,2013-08-04 12:33:00,
2013-08-04 07:38:00,76.6,66.3,29.03,South,180,0.0,0.0,70,0.00,,,0.00,WSDL version 420,2013-08-04 12:38:00,
2013-08-04 07:43:00,76.8,66.4,29.03,South,180,0.0,0.0,70,0.00,,,0.00,WSDL version 420,2013-08-04 12:43:00,
2013-08-04 07:48:00,77.0,66.4,29.03,WSW,248,0.0,1.1,70,0.00,,,0.00,WSDL version 420,2013-08-04 12:48:00,
2013-08-04 07:53:00,77.4,66.7,29.03,SSW,208,0.0,1.1,69,0.00,,,0.00,WSDL version 420,2013-08-04 12:53:00,
2013-08-04 07:58:00,77.6,66.6,29.03,WSW,253,0.0,1.1,69,0.00,,,0.00,WSDL version 420,2013-08-04 12:58:00,
2013-08-04 08:03:00,77.9,66.9,29.03,WSW,238,0.1,2.2,69,0.00,,,0.00,WSDL version 420,2013-08-04 13:03:00,
2013-08-04 08:08:00,78.1,67.1,29.03,WSW,253,0.0,2.5,69,0.00,,,0.00,WSDL version 420,2013-08-04 13:08:00,
2013-08-04 08:13:00,78.5,67.3,29.03,SW,233,0.0,2.5,68,0.00,,,0.00,WSDL version 420,2013-08-04 13:13:00,
2013-08-04 08:18:00,78.8,67.4,29.03,South,180,0.0,2.2,68,0.00,,,0.00,WSDL version 420,2013-08-04 13:18:00,
2013-08-04 08:23:00,79.3,67.9,29.03,SW,219,0.9,2.2,68,0.00,,,0.00,WSDL version 420,2013-08-04 13:23:00,
2013-08-04 08:28:00,79.8,67.9,29.03,SW,228,1.1,2.2,67,0.00,,,0.00,WSDL version 420,2013-08-04 13:28:00,
2013-08-04 08:33:00,80.2,68.2,29.03,WSW,258,0.7,3.1,67,0.00,,,0.00,WSDL version 420,2013-08-04 13:33:00,
2013-08-04 08:38:00,80.6,68.3,29.03,WSW,243,1.0,3.1,66,0.00,,,0.00,WSDL version 420,2013-08-04 13:38:00,
2013-08-04 08:43:00,81.1,68.3,29.03,SSW,205,1.3,3.6,65,0.00,,,0.00,WSDL version 420,2013-08-04 13:43:00,
2013-08-04 08:48:00,81.4,68.5,29.03,SW,225,1.0,3.6,65,0.00,,,0.00,WSDL version 420,2013-08-04 13:48:00,
2013-08-04 08:53:00,81.9,68.5,29.03,WSW,238,1.2,2.9,64,0.00,,,0.00,WSDL version 420,2013-08-04 13:53:00,
2013-08-04 08:58:00,82.6,68.6,29.03,West,273,1.2,2.9,62,0.00,,,0.00,WSDL version 420,2013-08-04 13:58:00,
2013-08-04 09:03:00,83.3,68.8,29.03,WSW,248,1.2,2.9,62,0.00,,,0.00,WSDL version 420,2013-08-04 14:03:00,
2013-08-04 09:08:00,83.5,68.4,29.03,SW,228,1.5,2.9,60,0.00,,,0.00,WSDL version 420,2013-08-04 14:08:00,
2013-08-04 09:13:00,84.0,68.2,29.03,WSW,256,1.7,3.1,58,0.00,,,0.00,WSDL version 420,2013-08-04 14:13:00,
2013-08-04 09:18:00,84.8,68.4,29.03,West,263,1.2,3.1,58,0.00,,,0.00,WSDL version 420,2013-08-04 14:18:00,
2013-08-04 09:23:00,85.2,68.2,29.03,SSE,158,1.9,3.4,57,0.00,,,0.00,WSDL version 420,2013-08-04 14:23:00,
2013-08-04 09:28:00,85.2,67.5,29.03,NE,38,1.9,3.4,55,0.00,,,0.00,WSDL version 420,2013-08-04 14:28:00,
2013-08-04 09:33:00,85.7,67.8,29.03,SW,217,2.0,3.1,55,0.00,,,0.00,WSDL version 420,2013-08-04 14:33:00,
2013-08-04 09:38:00,86.3,67.4,29.03,WNW,285,1.7,3.1,53,0.00,,,0.00,WSDL version 420,2013-08-04 14:38:00,
2013-08-04 09:43:00,86.8,67.6,29.03,SW,233,1.4,3.1,53,0.00,,,0.00,WSDL version 420,2013-08-04 14:43:00,
2013-08-04 09:48:00,87.3,67.5,29.03,SSW,200,1.5,2.9,52,0.00,,,0.00,WSDL version 420,2013-08-04 14:48:00,
2013-08-04 09:53:00,87.7,67.1,29.03,SSW,193,2.1,3.6,49,0.00,,,0.00,WSDL version 420,2013-08-04 14:53:00,
2013-08-04 09:58:00,87.8,66.7,29.03,SW,217,2.3,3.6,49,0.00,,,0.00,WSDL version 420,2013-08-04 14:58:00,
2013-08-04 10:03:00,87.6,65.7,29.06,SW,220,2.5,3.8,48,0.00,,,0.00,WSDL version 420,2013-08-04 15:03:00,
2013-08-04 10:08:00,86.9,64.9,29.06,SW,223,1.8,3.8,48,0.00,,,0.00,WSDL version 420,2013-08-04 15:08:00,
2013-08-04 10:13:00,86.7,65.2,29.06,SW,230,1.9,3.4,49,0.00,,,0.00,WSDL version 420,2013-08-04 15:13:00,
2013-08-04 10:18:00,86.9,65.5,29.03,SW,233,2.2,4.3,49,0.00,,,0.00,WSDL version 420,2013-08-04 15:18:00,
2013-08-04 10:23:00,87.3,65.4,29.03,WSW,245,1.1,4.3,48,0.00,,,0.00,WSDL version 420,2013-08-04 15:23:00,
2013-08-04 10:28:00,87.5,65.6,29.03,SW,228,2.3,6.0,48,0.00,,,0.00,WSDL version 420,2013-08-04 15:28:00,
2013-08-04 10:33:00,88.6,65.9,29.06,West,276,1.5,6.0,46,0.00,,,0.00,WSDL version 420,2013-08-04 15:33:00,
2013-08-04 10:38:00,89.2,65.8,29.06,SW,235,2.3,3.6,45,0.00,,,0.00,WSDL version 420,2013-08-04 15:38:00,
2013-08-04 10:43:00,88.9,64.8,29.06,WSW,248,1.8,4.0,45,0.00,,,0.00,WSDL version 420,2013-08-04 15:43:00,
2013-08-04 10:48:00,89.2,65.3,29.03,SW,230,1.4,4.0,45,0.00,,,0.00,WSDL version 420,2013-08-04 15:48:00,
2013-08-04 10:53:00,89.3,64.9,29.03,South,190,1.7,2.9,45,0.00,,,0.00,WSDL version 420,2013-08-04 15:53:00,
2013-08-04 10:58:00,88.3,64.3,29.03,SSW,200,1.4,3.6,45,0.00,,,0.00,WSDL version 420,2013-08-04 15:58:00,
2013-08-04 11:03:00,87.8,64.1,29.03,SSW,205,1.2,3.6,45,0.00,,,0.00,WSDL version 420,2013-08-04 16:03:00,
2013-08-04 11:08:00,87.7,64.1,29.03,SW,219,1.9,3.1,45,0.00,,,0.00,WSDL version 420,2013-08-04 16:08:00,
2013-08-04 11:13:00,87.8,64.0,29.03,SSW,195,1.0,3.6,46,0.00,,,0.00,WSDL version 420,2013-08-04 16:13:00,
2013-08-04 11:18:00,88.1,64.1,29.03,SW,219,1.6,3.6,45,0.00,,,0.00,WSDL version 420,2013-08-04 16:18:00,
2013-08-04 11:23:00,88.7,64.3,29.03,SW,230,1.8,3.4,44,0.00,,,0.00,WSDL version 420,2013-08-04 16:23:00,
2013-08-04 11:28:00,89.8,64.7,29.03,NE,40,1.7,3.4,43,0.00,,,0.00,WSDL version 420,2013-08-04 16:28:00,
2013-08-04 11:33:00,90.4,64.6,29.03,East,87,1.1,4.0,42,0.00,,,0.00,WSDL version 420,2013-08-04 16:33:00,
2013-08-04 11:38:00,90.7,64.4,29.03,SW,233,2.3,4.0,41,0.00,,,0.00,WSDL version 420,2013-08-04 16:38:00,
2013-08-04 11:43:00,91.1,64.2,29.03,South,169,1.6,4.0,41,0.00,,,0.00,WSDL version 420,2013-08-04 16:43:00,
2013-08-04 11:48:00,90.4,63.5,29.03,South,185,1.6,3.4,41,0.00,,,0.00,WSDL version 420,2013-08-04 16:48:00,
2013-08-04 11:53:00,91.1,63.9,29.03,WSW,256,1.7,4.0,40,0.00,,,0.00,WSDL version 420,2013-08-04 16:53:00,
2013-08-04 11:58:00,91.2,62.8,29.03,WSW,253,2.1,4.0,39,0.00,,,0.00,WSDL version 420,2013-08-04 16:58:00,
2013-08-04 12:03:00,91.3,63.0,29.03,SW,220,2.7,4.7,39,0.00,,,0.00,WSDL version 420,2013-08-04 17:03:00,
2013-08-04 12:08:00,92.3,63.5,29.03,SW,214,2.3,4.7,38,0.00,,,0.00,WSDL version 420,2013-08-04 17:08:00,
2013-08-04 12:13:00,92.4,63.0,29.03,SE,141,1.8,3.4,38,0.00,,,0.00,WSDL version 420,2013-08-04 17:13:00,
2013-08-04 12:18:00,92.7,63.2,29.00,SW,217,2.5,4.0,37,0.00,,,0.00,WSDL version 420,2013-08-04 17:18:00,
2013-08-04 12:23:00,92.9,63.1,29.00,WSW,258,1.6,4.0,37,0.00,,,0.00,WSDL version 420,2013-08-04 17:23:00,
2013-08-04 12:28:00,93.1,62.8,29.00,South,190,2.3,4.3,37,0.00,,,0.00,WSDL version 420,2013-08-04 17:28:00,
2013-08-04 12:33:00,93.1,63.0,29.00,South,177,2.1,4.3,37,0.00,,,0.00,WSDL version 420,2013-08-04 17:33:00,
2013-08-04 12:38:00,93.8,63.5,29.00,South,188,2.5,5.6,36,0.00,,,0.00,WSDL version 420,2013-08-04 17:38:00,
2013-08-04 12:43:00,94.1,62.8,29.00,WSW,239,1.5,5.6,35,0.00,,,0.00,WSDL version 420,2013-08-04 17:43:00,
2013-08-04 12:48:00,93.6,62.6,29.00,North,353,1.8,3.8,36,0.00,,,0.00,WSDL version 420,2013-08-04 17:48:00,
2013-08-04 12:53:00,93.6,62.9,29.00,WSW,253,1.1,3.8,37,0.00,,,0.00,WSDL version 420,2013-08-04 17:53:00,
2013-08-04 12:58:00,93.9,63.7,29.00,SSW,203,1.5,3.6,37,0.00,,,0.00,WSDL version 420,2013-08-04 17:58:00,
2013-08-04 13:03:00,94.0,63.0,29.00,South,191,1.8,3.6,36,0.00,,,0.00,WSDL version 420,2013-08-04 18:03:00,
2013-08-04 13:08:00,94.9,63.2,29.00,South,178,2.4,3.6,35,0.00,,,0.00,WSDL version 420,2013-08-04 18:08:00,
2013-08-04 13:13:00,95.0,62.7,29.00,SW,228,1.1,3.4,35,0.00,,,0.00,WSDL version 420,2013-08-04 18:13:00,
2013-08-04 13:18:00,94.4,62.4,29.00,WSW,248,1.9,3.8,35,0.00,,,0.00,WSDL version 420,2013-08-04 18:18:00,
2013-08-04 13:23:00,94.6,61.5,29.00,SSW,208,1.8,3.8,34,0.00,,,0.00,WSDL version 420,2013-08-04 18:23:00,
2013-08-04 13:28:00,94.4,61.7,29.00,WSW,256,0.0,3.4,35,0.00,,,0.00,WSDL version 420,2013-08-04 18:28:00,
2013-08-04 13:33:00,94.1,60.6,29.00,SE,125,1.8,3.8,33,0.00,,,0.00,WSDL version 420,2013-08-04 18:33:00,
2013-08-04 13:38:00,94.4,60.7,29.00,SW,214,1.8,3.8,32,0.00,,,0.00,WSDL version 420,2013-08-04 18:38:00,
2013-08-04 13:43:00,93.2,60.0,29.00,North,8,2.6,3.8,34,0.00,,,0.00,WSDL version 420,2013-08-04 18:43:00,
2013-08-04 13:48:00,93.3,60.6,28.97,WSW,258,2.2,4.7,33,0.00,,,0.00,WSDL version 420,2013-08-04 18:48:00,
2013-08-04 13:53:00,93.7,60.8,28.97,SSW,200,1.3,4.7,34,0.00,,,0.00,WSDL version 420,2013-08-04 18:53:00,
2013-08-04 13:58:00,94.1,60.9,28.97,NNE,20,1.6,3.6,33,0.00,,,0.00,WSDL version 420,2013-08-04 18:58:00,
2013-08-04 14:08:00,94.8,60.9,28.97,WSW,240,1.5,3.6,33,0.00,,,0.00,WSDL version 420,2013-08-04 19:08:00,
2013-08-04 14:13:00,94.8,61.3,28.97,West,270,1.7,2.9,33,0.00,,,0.00,WSDL version 420,2013-08-04 19:13:00,
2013-08-04 14:18:00,94.7,60.4,28.97,East,90,1.6,3.8,32,0.00,,,0.00,WSDL version 420,2013-08-04 19:18:00,
2013-08-04 14:23:00,94.7,60.4,28.97,ENE,63,2.5,3.8,32,0.00,,,0.00,WSDL version 420,2013-08-04 19:23:00,
2013-08-04 14:28:00,95.1,60.1,28.97,North,6,2.8,4.9,32,0.00,,,0.00,WSDL version 420,2013-08-04 19:28:00,
2013-08-04 14:33:00,94.5,60.1,28.97,SSE,160,1.6,4.9,32,0.00,,,0.00,WSDL version 420,2013-08-04 19:33:00,
2013-08-04 14:38:00,94.3,60.1,28.97,SE,124,2.2,4.9,32,0.00,,,0.00,WSDL version 420,2013-08-04 19:38:00,
2013-08-04 14:43:00,94.5,59.7,28.97,SW,230,2.3,5.4,31,0.00,,,0.00,WSDL version 420,2013-08-04 19:43:00,
2013-08-04 14:48:00,94.8,60.1,28.97,West,267,2.8,5.4,31,0.00,,,0.00,WSDL version 420,2013-08-04 19:48:00,
2013-08-04 14:53:00,95.3,59.7,28.97,WSW,250,2.3,4.5,31,0.00,,,0.00,WSDL version 420,2013-08-04 19:53:00,
2013-08-04 14:58:00,95.5,59.9,28.97,SW,228,2.4,5.6,31,0.00,,,0.00,WSDL version 420,2013-08-04 19:58:00,
2013-08-04 15:03:00,95.5,59.2,28.97,East,101,2.0,5.6,30,0.00,,,0.00,WSDL version 420,2013-08-04 20:03:00,
2013-08-04 15:08:00,95.7,59.3,28.97,SW,230,1.8,4.0,30,0.00,,,0.00,WSDL version 420,2013-08-04 20:08:00,
2013-08-04 15:13:00,95.1,58.8,28.97,SW,236,2.0,5.4,30,0.00,,,0.00,WSDL version 420,2013-08-04 20:13:00,
2013-08-04 15:18:00,95.5,59.1,28.94,SSE,165,2.2,5.4,30,0.00,,,0.00,WSDL version 420,2013-08-04 20:18:00,
2013-08-04 15:23:00,96.1,59.5,28.94,WSW,248,1.9,4.9,30,0.00,,,0.00,WSDL version 420,2013-08-04 20:23:00,
2013-08-04 15:28:00,95.1,59.2,28.94,ENE,70,1.7,5.4,31,0.00,,,0.00,WSDL version 420,2013-08-04 20:28:00,
2013-08-04 15:33:00,95.1,59.0,28.94,SSW,195,2.0,5.4,30,0.00,,,0.00,WSDL version 420,2013-08-04 20:33:00,
2013-08-04 15:38:00,96.1,59.4,28.94,SSW,203,2.3,5.4,29,0.00,,,0.00,WSDL version 420,2013-08-04 20:38:00,
2013-08-04 15:43:00,96.5,60.0,28.94,SSW,203,1.5,5.4,30,0.00,,,0.00,WSDL version 420,2013-08-04 20:43:00,
2013-08-04 15:48:00,96.1,58.8,28.94,West,280,2.0,4.0,29,0.00,,,0.00,WSDL version 420,2013-08-04 20:48:00,
2013-08-04 15:53:00,94.8,58.4,28.94,West,273,1.2,4.0,30,0.00,,,0.00,WSDL version 420,2013-08-04 20:53:00,
2013-08-04 15:58:00,95.5,59.0,28.94,SW,222,1.6,3.8,30,0.00,,,0.00,WSDL version 420,2013-08-04 20:58:00,
2013-08-04 16:03:00,96.4,59.0,28.94,East,95,1.6,4.3,29,0.00,,,0.00,WSDL version 420,2013-08-04 21:03:00,
2013-08-04 16:08:00,95.9,58.6,28.94,SW,214,1.7,4.3,29,0.00,,,0.00,WSDL version 420,2013-08-04 21:08:00,
2013-08-04 16:13:00,95.4,58.3,28.94,South,191,0.9,3.6,29,0.00,,,0.00,WSDL version 420,2013-08-04 21:13:00,
2013-08-04 16:18:00,96.1,58.7,28.94,SE,130,1.6,3.6,29,0.00,,,0.00,WSDL version 420,2013-08-04 21:18:00,
2013-08-04 16:23:00,95.9,58.6,28.94,SW,218,1.9,3.8,29,0.00,,,0.00,WSDL version 420,2013-08-04 21:23:00,
2013-08-04 16:28:00,95.5,58.2,28.94,NE,45,1.3,3.8,29,0.00,,,0.00,WSDL version 420,2013-08-04 21:28:00,
2013-08-04 16:33:00,95.4,58.1,28.91,WSW,239,1.6,3.1,29,0.00,,,0.00,WSDL version 420,2013-08-04 21:33:00,
2013-08-04 16:38:00,95.3,58.0,28.91,SW,220,1.4,3.1,29,0.00,,,0.00,WSDL version 420,2013-08-04 21:38:00,
2013-08-04 16:43:00,96.0,58.3,28.91,WNW,300,1.8,4.0,28,0.00,,,0.00,WSDL version 420,2013-08-04 21:43:00,
2013-08-04 16:48:00,96.2,57.8,28.94,SSW,208,1.9,4.0,28,0.00,,,0.00,WSDL version 420,2013-08-04 21:48:00,
2013-08-04 16:53:00,96.5,58.1,28.94,South,180,1.7,3.8,28,0.00,,,0.00,WSDL version 420,2013-08-04 21:53:00,
2013-08-04 17:03:00,97.0,58.5,28.94,West,273,1.2,4.0,28,0.00,,,0.00,WSDL version 420,2013-08-04 22:03:00,
2013-08-04 17:08:00,97.3,58.7,28.94,North,360,1.2,2.9,28,0.00,,,0.00,WSDL version 420,2013-08-04 22:08:00,
2013-08-04 17:13:00,97.4,58.8,28.94,WSW,248,1.6,3.6,28,0.00,,,0.00,WSDL version 420,2013-08-04 22:13:00,
2013-08-04 17:18:00,97.1,58.6,28.91,ENE,68,2.5,3.8,28,0.00,,,0.00,WSDL version 420,2013-08-04 22:18:00,
2013-08-04 17:23:00,96.3,57.9,28.91,SSW,194,1.6,3.8,28,0.00,,,0.00,WSDL version 420,2013-08-04 22:23:00,
2013-08-04 17:28:00,95.8,57.5,28.91,NNE,13,2.0,4.7,28,0.00,,,0.00,WSDL version 420,2013-08-04 22:28:00,
2013-08-04 17:33:00,96.1,57.7,28.94,SSW,203,1.5,4.7,28,0.00,,,0.00,WSDL version 420,2013-08-04 22:33:00,
2013-08-04 17:38:00,96.3,57.9,28.94,SSW,200,1.9,3.8,28,0.00,,,0.00,WSDL version 420,2013-08-04 22:38:00,
2013-08-04 17:43:00,96.1,57.7,28.94,South,177,1.0,3.8,28,0.00,,,0.00,WSDL version 420,2013-08-04 22:43:00,
2013-08-04 17:48:00,95.7,57.4,28.91,South,180,1.4,4.3,28,0.00,,,0.00,WSDL version 420,2013-08-04 22:48:00,
2013-08-04 17:53:00,95.2,57.0,28.91,ENE,76,1.3,4.3,28,0.00,,,0.00,WSDL version 420,2013-08-04 22:53:00,
2013-08-04 17:58:00,94.9,57.4,28.91,SSE,158,0.0,3.8,29,0.00,,,0.00,WSDL version 420,2013-08-04 22:58:00,
2013-08-04 18:03:00,95.0,57.6,28.91,East,80,1.0,2.7,29,0.00,,,0.00,WSDL version 420,2013-08-04 23:03:00,
2013-08-04 18:08:00,95.1,57.7,28.91,WSW,248,0.6,2.5,29,0.00,,,0.00,WSDL version 420,2013-08-04 23:08:00,
2013-08-04 18:13:00,95.5,57.9,28.91,SSW,203,1.6,3.1,29,0.00,,,0.00,WSDL version 420,2013-08-04 23:13:00,
2013-08-04 18:18:00,95.6,57.5,28.91,WSW,239,1.1,3.1,28,0.00,,,0.00,WSDL version 420,2013-08-04 23:18:00,
2013-08-04 18:23:00,95.5,57.3,28.91,NNW,338,1.4,3.1,28,0.00,,,0.00,WSDL version 420,2013-08-04 23:23:00,
2013-08-04 18:28:00,95.5,57.3,28.91,South,178,1.6,3.6,28,0.00,,,0.00,WSDL version 420,2013-08-04 23:28:00,
2013-08-04 18:33:00,95.5,57.3,28.91,East,82,1.8,3.6,28,0.00,,,0.00,WSDL version 420,2013-08-04 23:33:00,
2013-08-04 18:38:00,95.3,57.0,28.91,South,190,1.6,3.1,28,0.00,,,0.00,WSDL version 420,2013-08-04 23:38:00,
2013-08-04 18:48:00,95.2,56.9,28.91,SSW,205,1.6,3.1,28,0.00,,,0.00,WSDL version 420,2013-08-04 23:48:00,
2013-08-04 18:53:00,95.0,57.0,28.91,South,172,1.7,4.0,29,0.00,,,0.00,WSDL version 420,2013-08-04 23:53:00,
2013-08-04 18:58:00,94.8,57.6,28.91,SSW,213,1.1,4.0,29,0.00,,,0.00,WSDL version 420,2013-08-04 23:58:00,
2013-08-04 19:03:00,94.6,57.3,28.91,SW,231,1.5,2.7,29,0.00,,,0.00,WSDL version 420,2013-08-05 00:03:00,
2013-08-04 19:08:00,94.5,56.9,28.91,SW,236,1.3,3.4,29,0.00,,,0.00,WSDL version 420,2013-08-05 00:08:00,
2013-08-04 19:13:00,94.3,57.2,28.91,SSW,198,1.6,4.0,29,0.00,,,0.00,WSDL version 420,2013-08-05 00:13:00,
2013-08-04 19:18:00,94.2,57.1,28.91,SSW,205,1.8,4.0,29,0.00,,,0.00,WSDL version 420,2013-08-05 00:18:00,
2013-08-04 19:23:00,93.9,56.9,28.91,SW,230,1.0,3.4,29,0.00,,,0.00,WSDL version 420,2013-08-05 00:23:00,
2013-08-04 19:28:00,93.7,56.7,28.91,South,174,0.9,3.1,29,0.00,,,0.00,WSDL version 420,2013-08-05 00:28:00,
2013-08-04 19:33:00,93.6,56.6,28.91,South,178,0.1,3.1,29,0.00,,,0.00,WSDL version 420,2013-08-05 00:33:00,
2013-08-04 19:38:00,93.4,56.4,28.91,SW,233,1.2,2.5,29,0.00,,,0.00,WSDL version 420,2013-08-05 00:38:00,
2013-08-04 19:43:00,93.1,56.2,28.91,SSE,158,0.5,2.5,29,0.00,,,0.00,WSDL version 420,2013-08-05 00:43:00,
2013-08-04 19:48:00,92.9,56.0,28.91,South,180,0.5,2.2,29,0.00,,,0.00,WSDL version 420,2013-08-05 00:48:00,
2013-08-04 19:53:00,92.7,56.4,28.91,WSW,248,0.0,2.0,30,0.00,,,0.00,WSDL version 420,2013-08-05 00:53:00,
2013-08-04 19:58:00,92.4,56.5,28.91,ESE,108,0.0,1.1,30,0.00,,,0.00,WSDL version 420,2013-08-05 00:58:00,
2013-08-04 20:03:00,92.1,56.3,28.91,ESE,113,0.0,0.9,30,0.00,,,0.00,WSDL version 420,2013-08-05 01:03:00,
2013-08-04 20:08:00,91.9,56.0,28.91,SSW,203,0.0,1.6,30,0.00,,,0.00,WSDL version 420,2013-08-05 01:08:00,
2013-08-04 20:13:00,91.6,55.8,28.91,SSW,203,0.0,1.6,30,0.00,,,0.00,WSDL version 420,2013-08-05 01:13:00,
2013-08-04 20:23:00,91.0,56.2,28.91,SSW,203,0.0,0.0,31,0.00,,,0.00,WSDL version 420,2013-08-05 01:23:00,
2013-08-04 20:28:00,90.5,55.7,28.91,SSW,203,0.0,0.0,31,0.00,,,0.00,WSDL version 420,2013-08-05 01:28:00,
2013-08-04 20:33:00,90.0,55.8,28.91,SSW,203,0.0,0.0,32,0.00,,,0.00,WSDL version 420,2013-08-05 01:33:00,
2013-08-04 20:38:00,89.6,55.9,28.91,South,191,0.0,0.0,32,0.00,,,0.00,WSDL version 420,2013-08-05 01:38:00,
2013-08-04 20:43:00,89.6,55.9,28.91,SSE,158,0.0,0.0,32,0.00,,,0.00,WSDL version 420,2013-08-05 01:43:00,
2013-08-04 20:48:00,89.2,56.0,28.91,SSE,158,0.0,0.0,33,0.00,,,0.00,WSDL version 420,2013-08-05 01:48:00,
2013-08-04 20:53:00,88.9,56.1,28.91,SSE,158,0.0,0.0,33,0.00,,,0.00,WSDL version 420,2013-08-05 01:53:00,
2013-08-04 20:58:00,88.7,56.0,28.91,SSE,158,0.0,0.0,34,0.00,,,0.00,WSDL version 420,2013-08-05 01:58:00,
2013-08-04 21:03:00,88.4,56.5,28.91,SSE,158,0.0,0.0,34,0.00,,,0.00,WSDL version 420,2013-08-05 02:03:00,
2013-08-04 21:08:00,88.1,56.2,28.91,SSE,158,0.0,0.0,34,0.00,,,0.00,WSDL version 420,2013-08-05 02:08:00,
2013-08-04 21:13:00,87.7,56.3,28.91,SSE,158,0.0,0.0,35,0.00,,,0.00,WSDL version 420,2013-08-05 02:13:00,
2013-08-04 21:18:00,87.5,57.0,28.91,SSE,158,0.0,0.0,36,0.00,,,0.00,WSDL version 420,2013-08-05 02:18:00,
2013-08-04 21:23:00,87.2,57.2,28.91,SSE,158,0.0,0.0,37,0.00,,,0.00,WSDL version 420,2013-08-05 02:23:00,
2013-08-04 21:28:00,87.0,57.6,28.91,SSE,158,0.0,0.0,37,0.00,,,0.00,WSDL version 420,2013-08-05 02:28:00,
2013-08-04 21:33:00,86.7,57.8,28.91,SSE,158,0.0,0.0,38,0.00,,,0.00,WSDL version 420,2013-08-05 02:33:00,
2013-08-04 21:38:00,86.5,57.9,28.91,SSE,158,0.0,0.0,38,0.00,,,0.00,WSDL version 420,2013-08-05 02:38:00,
2013-08-04 21:43:00,86.1,57.5,28.91,SSE,158,0.0,0.0,38,0.00,,,0.00,WSDL version 420,2013-08-05 02:43:00,
2013-08-04 21:48:00,86.1,57.7,28.91,NNW,338,0.0,0.9,38,0.00,,,0.00,WSDL version 420,2013-08-05 02:48:00,
2013-08-04 21:53:00,86.6,58.0,28.91,NNW,335,0.0,1.1,38,0.00,,,0.00,WSDL version 420,2013-08-05 02:53:00,
2013-08-04 21:58:00,87.0,57.9,28.91,WSW,242,0.0,1.1,37,0.00,,,0.00,WSDL version 420,2013-08-05 02:58:00,
2013-08-04 22:03:00,87.2,57.9,28.94,SW,225,0.4,1.6,37,0.00,,,0.00,WSDL version 420,2013-08-05 03:03:00,
2013-08-04 22:08:00,87.6,58.2,28.94,South,173,0.0,1.6,37,0.00,,,0.00,WSDL version 420,2013-08-05 03:08:00,
2013-08-04 22:13:00,87.9,58.5,28.94,NE,48,1.3,3.8,38,0.00,,,0.00,WSDL version 420,2013-08-05 03:13:00,
2013-08-04 22:18:00,88.3,59.3,28.94,SW,225,1.7,3.8,38,0.00,,,0.00,WSDL version 420,2013-08-05 03:18:00,
2013-08-04 22:23:00,88.4,59.6,28.94,South,188,0.9,4.0,38,0.00,,,0.00,WSDL version 420,2013-08-05 03:23:00,
2013-08-04 22:28:00,88.5,59.7,28.94,North,3,1.1,4.0,38,0.00,,,0.00,WSDL version 420,2013-08-05 03:28:00,
2013-08-04 22:33:00,88.5,59.7,28.94,SW,220,1.5,4.0,38,0.00,,,0.00,WSDL version 420,2013-08-05 03:33:00,
2013-08-04 22:43:00,88.2,59.4,28.94,SSW,203,1.7,4.0,38,0.00,,,0.00,WSDL version 420,2013-08-05 03:43:00,
2013-08-04 22:48:00,88.2,59.4,28.97,SSW,197,2.1,3.4,38,0.00,,,0.00,WSDL version 420,2013-08-05 03:48:00,
2013-08-04 22:53:00,87.9,59.2,28.97,SSW,200,1.3,2.9,38,0.00,,,0.00,WSDL version 420,2013-08-05 03:53:00,
2013-08-04 22:58:00,87.7,59.6,28.97,North,354,2.1,6.3,39,0.00,,,0.00,WSDL version 420,2013-08-05 03:58:00,
2013-08-04 23:03:00,87.6,59.8,28.97,SSW,213,2.4,6.3,39,0.00,,,0.00,WSDL version 420,2013-08-05 04:03:00,
2013-08-04 23:08:00,87.5,59.5,28.97,SW,236,1.6,6.0,39,0.00,,,0.00,WSDL version 420,2013-08-05 04:08:00,
2013-08-04 23:13:00,87.3,59.5,28.97,SSW,200,1.3,4.7,39,0.00,,,0.00,WSDL version 420,2013-08-05 04:13:00,
2013-08-04 23:18:00,87.1,59.7,28.97,WSW,245,1.7,4.7,40,0.00,,,0.00,WSDL version 420,2013-08-05 04:18:00,
2013-08-04 23:23:00,87.1,59.9,28.97,South,191,2.2,4.3,40,0.00,,,0.00,WSDL version 420,2013-08-05 04:23:00,
2013-08-04 23:28:00,87.0,59.8,28.97,SSW,196,2.1,4.3,40,0.00,,,0.00,WSDL version 420,2013-08-05 04:28:00,
2013-08-04 23:33:00,86.7,59.8,28.97,South,169,2.3,4.0,40,0.00,,,0.00,WSDL version 420,2013-08-05 04:33:00,
2013-08-04 23:38:00,86.6,60.0,28.97,South,183,2.4,4.7,41,0.00,,,0.00,WSDL version 420,2013-08-05 04:38:00,
2013-08-04 23:43:00,86.4,60.1,28.97,SW,225,2.1,5.6,42,0.00,,,0.00,WSDL version 420,2013-08-05 04:43:00,
2013-08-04 23:48:00,86.2,60.3,28.97,SSW,203,1.7,5.6,41,0.00,,,0.00,WSDL version 420,2013-08-05 04:48:00,
2013-08-04 23:53:00,86.0,60.3,28.97,South,183,2.6,4.9,42,0.00,,,0.00,WSDL version 420,2013-08-05 04:53:00,
2013-08-04 23:58:00,85.8,60.5,28.97,SW,214,2.5,4.9,43,0.00,,,0.00,WSDL version 420,2013-08-05 04:58:00,